Regional Weather Roundup
Issued by NWS

Home | Current Version | Previous Version | Graphics & Text | Print | Product List | Glossary On
Versions: 1 2 3 4 5 6 7 8 9 10 11 12 13 14 15 16 17 18 19 20 21 22 23 24 25 26 27 28 29 30 31 32 33 34 35 36 37 38 39 40 41 42 43 44 45 46 47 48 49 50
000
ASUS43 KLSX 231510
RWRMO

WEATHER SUMMARY FOR MISSOURI
NATIONAL WEATHER SERVICE SPRINGFIELD MO
1000 AM CDT TUE AUG 23 2016

NOTE: "FAIR" INDICATES FEW OR NO CLOUDS BELOW 12,000 FEET WITH NO
       SIGNIFICANT WEATHER AND/OR OBSTRUCTIONS TO VISIBILITY.
       CURRENT SKY AND/OR WEATHER CONDITIONS ARE NOT AVAILABLE FOR
       CHILLICOTHE AND FARMINGTON.

MOZ001>031-035>038-043-044-053-054-231600-
...NORTHERN AND WESTERN MISSOURI...

CITY           SKY/WX    TMP DP  RH WIND       PRES   REMARKS
KANSAS CTY INT CLOUDY    75  67  76 S14G23    30.05S
KANSAS C DTWN  CLOUDY    75  69  81 S8G22     30.05R
LEE`S SUMMIT   CLOUDY    73  69  87 S14G20    30.08S
ST JOSEPH      CLOUDY    74  68  81 S13G20    30.02F
CHILLICOTHE      N/A     73  66  78 SE7       30.10S
KIRKSVILLE     CLOUDY    74  65  73 SE10      30.13S

$$
MOZ066>068-077>081-088>096-101>105-231600-
...SOUTHWEST MISSOURI...

CITY           SKY/WX    TMP DP  RH WIND       PRES   REMARKS
SPRINGFIELD    CLOUDY    72  69  90 S10       30.16S
JOPLIN         CLOUDY    76  72  87 S14       30.11S
BRANSON        PTSUNNY   73  70  88 SE6       30.19R

$$
MOZ032>034-039>042-045>050-055>058-069>072-231600-
...CENTRAL MISSOURI...

CITY           SKY/WX    TMP DP  RH WIND       PRES   REMARKS
COLUMBIA       PTSUNNY   73  67  81 S13       30.15S
JEFFERSON CITY CLOUDY    74  66  76 SE5       30.14S
ROLLA          CLOUDY    70  67  90 SE6       30.17S
SEDALIA        CLOUDY    75  69  81 S10       30.13S
WHITEMAN AFB   CLOUDY    74  73  98 S10       30.09F
OSAGE BEACH    CLOUDY    71  68  90 S9        30.15S

$$
MOZ051-052-059>065-231600-
...EAST CENTRAL MISSOURI...

CITY           SKY/WX    TMP DP  RH WIND       PRES   REMARKS
ST LOUIS INTL  CLOUDY    74  62  66 S10       30.21
SPIRIT OF STL  LGT RAIN  70  66  87 CALM      30.20R FOG
ST CHARLES     CLOUDY    73  65  75 S9        30.20R

$$
MOZ072>076-082>087-097>100-106>115-231600-
...SOUTH CENTRAL AND SOUTHEAST MISSOURI...

CITY           SKY/WX    TMP DP  RH WIND       PRES   REMARKS
CAPE GIRARDEAU   N/A    N/A N/A N/A E6        30.23S
FARMINGTON     CLOUDY    69  66  90 S8        30.23S
POPLAR BLUFF   CLOUDY    74  68  81 SE5       30.21S

$$




USA.gov is the U.S. government's official web portal to all federal, state and local government web resources and services.